Flag for U.S.A. Weather past 2 weeks in Port Angeles, Washington, U.S.A.

Now
58 °F

Mostly cloudy.


Feels Like: 56 °F
Forecast: 55 / 64 °F
Wind: 8 mph from West

Location: William R. Fairchild International Airport

Current Time: Aug 29, 2014 at 2:04:37 AM

Latest Report: Aug 29, 2014 at 12:53 AM


Visibility: 10 mi

Pressure: 30.01 "Hg

Humidity: 75%

Dew point: 50 °F

Location of Port AngelesLocation

Historic Weather in Port Angeles — Graph

°F

Port Angeles temperature yesterday

Maximum temperature yesterday: 70 °F (at 2:53 PM)
Minimum temperature yesterday: 55 °F (at 10:53 PM)
Average temperature yesterday: 62 °F

Past Weeks' High & Low Weather Summary

 TemperatureHumidityPressure
High76 °F (Aug 18, 12:53 PM)97% (Aug 15, 1:00 AM)30.15 "Hg (Aug 15, 1:00 AM)
Low49 °F (Aug 23, 4:53 AM)48% (Aug 25, 9:53 AM)29.81 "Hg (Aug 19, 1:53 AM)
Average61 °F79%30.02 "Hg
* Reported Aug 14 12:53 AM — Aug 29 12:53 AM, Port Angeles, Weather by CustomWeather, © 2014

Note: Actual official high and low records may vary slightly from our data, if they occured in-between our weather recording intervals... More about our weather records

Advertising

Port Angeles weather history for previous 24 hours

 ConditionsComfort  
Time TempWeatherWind HumidityBarometerVisibility
12:53 AM
Aug 29
58 °FMostly cloudy.8 mph75%30.01 "Hg10 mi
11:53 PM
Aug 28
57 °FOvercast.8 mph87%30.02 "Hg10 mi
10:53 PM55 °FPassing clouds.3 mph93%30.03 "Hg10 mi
9:53 PM57 °FPassing clouds.5 mph90%30.04 "Hg10 mi
8:53 PM58 °FPartly sunny.6 mph87%30.06 "Hg10 mi
7:53 PM61 °FOvercast.10 mph83%30.05 "Hg10 mi
7:03 PM63 °FBroken clouds.13 mph81%30.05 "Hg10 mi
5:53 PM65 °FSunny.8 mph76%30.06 "Hg10 mi
4:53 PM67 °FSunny.12 mph71%30.07 "Hg10 mi
3:53 PM68 °FOvercast.10 mph68%30.08 "Hg10 mi
2:53 PM70 °FOvercast.10 mph66%30.08 "Hg10 mi
1:53 PM69 °FOvercast.9 mph66%30.09 "Hg10 mi
12:53 PM68 °FOvercast.3 mph68%30.09 "Hg10 mi
11:53 AM66 °FOvercast.5 mph75%30.10 "Hg10 mi
10:53 AM65 °FOvercast.5 mph78%30.10 "Hg10 mi
9:53 AM64 °FLow clouds.5 mph81%30.09 "Hg10 mi
8:53 AM63 °FLow clouds.7 mph87%30.08 "Hg10 mi
7:53 AM61 °FLow clouds.6 mph90%30.08 "Hg10 mi
6:53 AM59 °FLow clouds.6 mph90%30.07 "Hg10 mi
5:53 AM59 °FPassing clouds.8 mph90%30.06 "Hg10 mi
4:53 AM59 °FClear.7 mph87%30.06 "Hg10 mi
3:53 AM61 °FClear.8 mph83%30.06 "Hg10 mi
2:53 AM61 °FClear.10 mph83%30.05 "Hg10 mi
Weather by CustomWeather, © 2014

See weather overviewHow to use our weather pages